Location: Clarion
(42.7316°N, 93.7330°W)
Time: 09:49:40
(UTC+00:00)

Dummy Sat-02 - Pass Details

Date: 22 April 2026
Orbit: 472 x 483 km, 86.3° (Epoch: 16 May)

Event Time Altitude Azimuth Distance (km) Brightness Sun altitude
Exits shadow 02:43:08 27° 176° (S) 940 5.6 -17.0°
Maximum altitude 02:44:57 81° 93° (E) 490 4.4 -17.3°
Drops below altitude 10° 02:48:33 10° 5° (N) 1,658 7.7 -17.8°
Sets 02:50:39 0° 4° (N) 2,540 8.7 -18.1°
